Find STARLINK-37384

NORAD ID: 799500911 Int'l Des: 2026-127T Constellation: starlink operational

現在のビュー

3D地球を読み込み中...

STARLINK-37384について

説明を読み込み中...

次回通過

Passes for default location (London). Set your location on the main map for personalized predictions.

高度履歴

Loading altitude history...

軌道要素

1 99999C 2026127T 26159.88937500 .00839440 00000-0 850210-4 0 1594
2 99999 53.1617 305.0153 0008910 291.6061 250.3051 16.09687558 12
Epoch: Jun 8, 2026 • Age: 3 hours